This is the latest recevied weather packets stored in our database for station/object OE6PLD-13. If no packets are shown the sender has not sent any weather packets the latest 1 day(s).
| Time | Temp. | Humidity | Pressure | Rain* | Wind** | Luminosity | Snow |
|---|---|---|---|---|---|---|---|
| 1777957288 | 8.33° C | 88% | 1009.9 hPa | 0.76 mm | 0 m/s | 125 W/m² | - |
| 1777957105 | 7.78° C | 88% | 1009.9 hPa | 0.76 mm | 0 m/s | 114 W/m² | - |
| 1777956921 | 7.78° C | 89% | 1010 hPa | 0.76 mm | 0.45 m/s, 266° | 100 W/m² | - |
| 1777956738 | 7.22° C | 90% | 1009.9 hPa | 0.76 mm | 0 m/s | 78 W/m² | - |
| 1777956555 | 7.22° C | 90% | 1009.8 hPa | 0.76 mm | 0.89 m/s, 266° | 61 W/m² | - |
| 1777956372 | 7.22° C | 90% | 1009.5 hPa | 0.76 mm | 0 m/s | 48 W/m² | - |
| 1777956188 | 7.22° C | 90% | 1009.8 hPa | 0.76 mm | 0.45 m/s, 266° | 36 W/m² | - |
| 1777956005 | 6.67° C | 90% | 1009.7 hPa | 0.76 mm | 0 m/s | 25 W/m² | - |
| 1777955821 | 7.22° C | 90% | 1009.8 hPa | 0.76 mm | 0 m/s | 22 W/m² | - |
| 1777955638 | 7.22° C | 91% | 1009.9 hPa | 0.76 mm | 0 m/s | 19 W/m² | - |
| 1777955455 | 7.22° C | 90% | 1009.8 hPa | 0.76 mm | 0 m/s | 19 W/m² | - |
| 1777955271 | 7.22° C | 90% | 1009.6 hPa | 0.76 mm | 0 m/s | 17 W/m² | - |
| 1777955088 | 7.22° C | 90% | 1009.8 hPa | 0.76 mm | 0 m/s | 17 W/m² | - |
| 1777954905 | 6.67° C | 90% | 1009.6 hPa | 0.76 mm | 0 m/s | 17 W/m² | - |
| 1777954721 | 7.22° C | 90% | 1009.8 hPa | 0.76 mm | 0 m/s | 15 W/m² | - |
| 1777954538 | 7.22° C | 90% | 1009.5 hPa | 0.76 mm | 0 m/s | 13 W/m² | - |
| 1777954355 | 7.22° C | 90% | 1009.5 hPa | 0.76 mm | 0 m/s | 13 W/m² | - |
| 1777954171 | 7.22° C | 90% | 1009.7 hPa | 0.76 mm | 0 m/s | 11 W/m² | - |
| 1777953988 | 7.22° C | 90% | 1009.6 hPa | 0.76 mm | 0 m/s | 10 W/m² | - |
| 1777953805 | 7.22° C | 90% | 1009.8 hPa | 0.76 mm | 0 m/s | 10 W/m² | - |
| 1777953624 | 7.22° C | 90% | 1009.6 hPa | 0.76 mm | 0 m/s | 9 W/m² | - |
| 1777953438 | 7.22° C | 90% | 1009.6 hPa | 0.76 mm | 0 m/s | 8 W/m² | - |
| 1777953254 | 7.22° C | 90% | 1009.5 hPa | 0.76 mm | 0 m/s | 6 W/m² | - |
| 1777953071 | 7.22° C | 90% | 1009.7 hPa | 0.76 mm | 0 m/s | 4 W/m² | - |
| 1777952887 | 7.22° C | 90% | 1009.6 hPa | 0.76 mm | 0 m/s | 3 W/m² | - |
* Rain latest hour (hover to see other rain measurements)
** Current wind speed in m/s (hover to see current wind gust speed)